Regional Weather Roundup
Issued by NWS Mt. Holly, NJ

Home | Current Version | Previous Version | Text Only | Print | Product List | Glossary On
Versions: 1 2 3 4 5 6 7 8 9 10 11 12 13 14 15 16 17 18 19 20 21 22 23 24 25 26 27
000
ASUS41 KPHI 211012
RWRPHI

REGIONAL WEATHER ROUNDUP
NATIONAL WEATHER SERVICE MOUNT HOLLY NJ
600 AM EDT MON AUG 21 2017

NOTE:  "FAIR" INDICATES FEW OR NO CLOUDS BELOW 12,000 FEET WITH NO
SIGNIFICANT WEATHER AND/OR OBSTRUCTIONS TO VISIBILITY.

 * = STATION DOES NOT REPORT PRECIPITATION (E.G. RAIN, SNOW, ETC.)
        OR FOG.

NJZ015>026-211100-
SOUTHERN NEW JERSEY

CITY           SKY/WX    TMP DP  RH WIND       PRES   REMARKS
POMONA         CLEAR     65  61  87 CALM      30.21R
MILLVILLE      PTCLDY    64  63  96 CALM      30.20R
WRIGHTSTOWN    CLEAR     63  61  93 CALM      30.18R
MOUNT HOLLY    CLEAR     62  62 100 CALM      30.20R
TRENTON        CLEAR     63  62  97 CALM      30.20R

$$
NJZ001>014-211100-
NORTHERN NEW JERSEY

CITY           SKY/WX    TMP DP  RH WIND       PRES   REMARKS
SUSSEX         CLEAR     59  59 100 CALM      30.21R
ANDOVER*         N/A     59  58  96 CALM      30.22R
MORRISTOWN     FOG       59  59 100 CALM      30.20R VSB 1
NEWARK         PTCLDY    68  63  84 SW5       30.19R
TETERBORO      CLEAR     67  62  84 CALM      30.18R
CALDWELL       CLEAR     63  63 100 CALM      30.20R
SOMERVILLE     CLEAR     60  60 100 CALM      30.19R
ALLAIRE*       CLEAR     65  62  90 SW3       30.21R
TOMS RIVER*    CLEAR     59  58  96 CALM      30.21R

$$
PAZ043-044-047-054-055-060>062-066>071-211100-
EASTERN PENNSYLVANIA

CITY           SKY/WX    TMP DP  RH WIND       PRES   REMARKS
PHILADELPHIA   MOCLDY    69  64  84 CALM      30.21R
NORTH PHILA    CLEAR     66  62  87 CALM      30.22R
BLUE BELL*     PTCLDY    59  59 100 CALM      30.23R
DOYLESTOWN     CLEAR     63  62  97 CALM      30.21R
QUAKERTOWN*    CLEAR     59  59 100 CALM      30.23R
PERKASIE*      FAIR      59  59 100 CALM      30.23R FOG
POTTSTOWN      CLEAR     60  60 100 CALM      30.23R FOG
LANCASTER      PTCLDY    63  63 100 CALM      30.21R FOG
COATESVILLE    CLEAR     63  63 100 CALM      30.23S
READING        CLEAR     63  63 100 CALM      30.20R
ALLENTOWN      CLEAR     62  59  90 CALM      30.21R FOG
MOUNT POCONO     N/A     56  56 100 N3        30.25R
HAZLETON         N/A     54  50  87 CALM      30.27R HAZE
LEHIGHTON      FOG       59  59 100 CALM      30.23R VSB 1/4
WILKES BARRE   CLOUDY    61  60  97 E3        30.22R

$$
DEZALL-MDZ008-012-015-019-020-211100-
DELAWARE AND EASTERN MARYLAND

CITY           SKY/WX    TMP DP  RH WIND       PRES   REMARKS
WILMINGTON     PTCLDY    67  65  93 CALM      30.21R
DOVER          CLEAR     67  67 100 S3        30.19R FOG
GEORGETOWN       N/A     66  64  93 CALM      30.21R
ABERDEEN       MOCLDY    65  64  98 CALM      30.20R
PATUXENT       PTCLDY    70  70 100 CALM      30.19R
OCEAN CITY     CLEAR     66  66 100 CALM      30.21R
WALLOPS ISLAND CLEAR     69  69 100 CALM      30.20R
CAMBRIDGE      PTCLDY    66  66 100 CALM      30.20S
SALISBURY      MOCLDY    65  65 100 CALM      30.20R

$$
PAZ001-021-NYZ056-072-MDZ011-DCZ001-211100-
OTHER NEARBY LOCATIONS

CITY           SKY/WX    TMP DP  RH WIND       PRES   REMARKS
HARRISBURG     MOCLDY    67  65  93 SE5       30.19S
STATE COLLEGE  PTCLDY    59  59 100 CALM      30.20F
WILLIAMSPORT   CLOUDY    63  62  97 CALM      30.19S
BINGHAMTON     CLEAR     59  58  96 S5        30.21S
NEW YORK CITY  CLEAR     72  63  73 CALM      30.21R
BALTIMORE      MOCLDY    70  68  93 CALM      30.20R
WASHINGTON DC  CLOUDY    76  72  87 SE3       30.20R

$$




USA.gov is the U.S. government's official web portal to all federal, state and local government web resources and services.